Date,TemperatureHighF,TemperatureAvgF,TemperatureLowF,DewpointHighF,DewpointAvgF,DewpointLowF,HumidityHigh,HumidityAvg,HumidityLow,PressureMaxIn,PressureMinIn,WindSpeedMaxMPH,WindSpeedAvgMPH,GustSpeedMaxMPH,PrecipitationSumIn
2013-4-1,63.0,56.6,44.8,38.7,34.5,31.3,60,44,38,29.85,29.73,7,4,24,0.00
2013-4-2,55.8,51.1,47.2,15.8,13.8,11.4,27,22,17,30.01,29.95,4,1,16,0.00
2013-4-3,48.1,45.9,44.3,15.4,13.5,10.7,28,27,25,30.20,30.13,1,0,3,0.00
2013-4-4,31.8,31.4,31.2,30.5,29.8,28.6,96,94,89,30.13,29.93,4,2,10,0.69
2013-4-5,63.5,56.4,49.7,30.1,27.9,20.7,42,34,20,29.93,29.79,5,2,14,0.01
2013-4-6,62.3,51.0,35.9,31.4,27.4,25.2,71,42,26,30.15,29.93,3,1,12,0.00
2013-4-7,69.6,54.4,39.1,43.2,36.4,26.6,79,53,31,30.14,29.97,6,2,22,0.00
2013-4-8,77.1,71.1,61.7,49.5,47.8,46.2,60,44,35,29.96,29.90,6,2,19,0.00
2013-4-9,81.9,73.4,65.9,52.3,50.1,45.6,61,45,28,29.95,29.92,5,1,15,0.00
2013-4-10,84.2,78.5,67.7,53.8,51.8,49.1,59,41,30,29.89,29.80,5,2,19,0.00
2013-4-11,78.8,73.4,68.7,57.3,55.7,52.3,66,55,40,29.69,29.62,5,2,23,0.00
2013-4-12,78.4,69.8,57.2,61.6,46.5,34.3,68,44,28,29.65,29.46,6,3,19,0.93
2013-4-13,73.6,59.4,43.4,39.7,33.1,25.7,70,40,18,29.90,29.65,5,1,20,0.00
2013-4-14,76.8,62.8,46.0,43.4,34.2,27.6,62,37,18,29.98,29.87,3,1,14,0.00
2013-4-15,62.6,57.5,52.4,53.5,52.6,51.6,97,84,71,30.10,30.00,1,0,5,0.09
2013-4-16,76.2,70.6,64.6,57.1,55.8,54.3,74,60,47,30.10,30.05,1,0,10,0.00
2013-4-17,77.1,70.5,64.4,56.7,55.6,54.4,73,60,47,30.02,29.99,1,0,6,0.00
2013-4-18,75.5,71.6,67.7,56.7,54.2,51.3,67,55,43,29.92,29.87,4,1,15,0.00
2013-4-19,72.9,61.9,52.8,63.8,57.4,41.4,95,86,65,29.74,29.56,8,2,25,0.18
2013-4-20,61.7,50.7,41.4,41.5,30.7,24.3,76,49,25,30.18,29.74,5,1,17,0.00
2013-4-21,57.9,47.6,39.1,36.0,30.8,25.7,77,53,35,30.41,30.18,3,0,13,0.00
2013-4-22,58.2,53.3,49.4,33.9,29.5,23.6,55,41,27,30.20,30.18,0,0,5,0.00
2013-4-23,66.7,61.9,55.9,46.5,45.2,42.4,70,55,42,30.02,29.99,1,0,8,0.00
2013-4-24,68.7,65.3,59.8,52.5,51.9,51.2,75,62,54,29.88,29.85,3,1,17,0.00
2013-4-25,68.2,59.0,48.4,35.6,26.1,20.7,57,30,17,30.19,30.07,2,0,7,0.00
2013-4-26,67.1,55.2,40.1,43.7,32.0,26.1,72,44,24,30.33,30.19,2,0,10,0.00
2013-4-27,66.9,56.2,49.1,51.1,45.6,36.7,92,69,43,30.24,30.15,1,0,7,0.03
2013-4-28,53.4,51.7,49.6,51.6,50.2,48.8,97,95,90,30.15,29.96,2,0,15,0.91
2013-4-29,65.2,59.7,54.6,55.2,53.7,52.5,93,81,65,29.92,29.87,0,0,2,0.28
2013-4-30,66.2,61.3,53.3,55.6,53.5,50.5,92,76,67,30.09,29.99,1,0,7,0.00